Columbia, MO

7:55 AM CST on February 26, 2017 (GMT -0600)
Columbia Regional

Weather History for KCOU - October, 2011

Change the Weather History Date:

Thursday, October 27, 2011

  Actual Average Record
Temperature  
Mean Temperature 48 °F 53 °F  
Max Temperature 56 °F 63 °F 87 °F (1927)
Min Temperature 40 °F 42 °F 24 °F (1925)
Degree Days  
Heating Degree Days 17 13  
Month to date heating degree days 179 244  
Since 1 July heating degree days 289 312  
Cooling Degree Days 0 0  
Month to date cooling degree days 34 15  
Year to date cooling degree days 1508 1242  
Moisture  
Dew Point 37 °F    
Average Humidity 67    
Maximum Humidity 92    
Minimum Humidity 41    
Precipitation  
Precipitation T in 0.09 in 2.27 in (1919)
Month to date precipitation 0.96 2.93  
Year to date precipitation 31.67 36.55  
Snow  
Snow 0.00 in 0.00 in 0.80 in (1925)
Month to date snowfall 0.0 0.0  
Since 1 July snowfall 0.0 0.0  
Since 1 September snowfall 0.0 0.0  
Snow Depth 0.00 in    
Sea Level Pressure  
Sea Level Pressure 30.10 in    
Wind  
Wind Speed 7 mph (North)    
Max Wind Speed 15 mph    
Max Gust Speed 20 mph    
Visibility 10 miles    
Events Rain    
T = Trace of Precipitation, MM = Missing Value Source: NWS Daily Summary

Daily Weather History Graph

Daily Weather History Graph

Search for Another Location

Airport or City:

Trip Planner

Search our weather history database for the weather conditions in past years. The results will help you decide how hot, cold, wet, or windy it might be!

Date:

Astronomy

Oct. 27, 2011 Rise Set
Actual Time 7:30 AM CDT 6:14 PM CDT
Civil Twilight 7:02 AM CDT 6:41 PM CDT
Nautical Twilight 6:31 AM CDT 7:13 PM CDT
Astronomical Twilight 6:00 AM CDT 7:44 PM CDT
Moon 8:32 AM CDT (10/27) 6:45 PM CDT (10/27)
Length of Visible Light 11h 38m
Length of Day
10h 44m
New Moon, 1% of the Moon is Illuminated
Oct 27
New Moon
Nov 2
First Quarter
Nov 10
Full
Nov 18
Last Quarter
Nov 25
New

Hourly Weather History & Observations

Time (CDT) Temp. Windchill Dew Point Humidity Pressure Visibility Wind Dir Wind Speed Gust Speed Precip Events Conditions
12:54 AM 46.4 °F 42.9 °F 42.8 °F 87% 30.01 in 10.0 mi NNW 6.9 mph - N/A   Overcast
1:54 AM 46.9 °F - 42.1 °F 83% 30.02 in 10.0 mi NNW 8.1 mph - N/A   Overcast
2:54 AM 46.4 °F 41.1 °F 41.0 °F 81% 30.04 in 10.0 mi NNW 11.5 mph - N/A   Overcast
3:54 AM 46.0 °F 39.9 °F 39.9 °F 79% 30.05 in 10.0 mi NNW 13.8 mph - N/A   Overcast
4:54 AM 46.0 °F 41.0 °F 39.9 °F 79% 30.06 in 10.0 mi NNW 10.4 mph - 0.00 in Rain Light Rain
5:54 AM 45.0 °F 41.2 °F 39.9 °F 82% 30.06 in 10.0 mi NNW 6.9 mph - 0.00 in   Overcast
6:54 AM 45.0 °F 41.2 °F 41.0 °F 86% 30.08 in 10.0 mi NNW 6.9 mph - 0.00 in   Overcast
7:54 AM 43.0 °F 40.3 °F 39.9 °F 89% 30.09 in 10.0 mi NNW 4.6 mph - N/A   Partly Cloudy
8:54 AM 45.0 °F 41.2 °F 42.1 °F 90% 30.09 in 10.0 mi North 6.9 mph - N/A   Clear
9:54 AM 48.0 °F - 41.0 °F 77% 30.12 in 10.0 mi North 5.8 mph - N/A   Clear
10:54 AM 50.0 °F - 39.0 °F 66% 30.12 in 10.0 mi NNW 10.4 mph - N/A   Clear
11:54 AM 52.0 °F - 37.0 °F 57% 30.11 in 10.0 mi NNW 6.9 mph - N/A   Mostly Cloudy
12:54 PM 54.0 °F - 36.0 °F 51% 30.09 in 10.0 mi NNE 11.5 mph 17.3 mph N/A   Clear
1:54 PM 55.0 °F - 33.1 °F 43% 30.09 in 10.0 mi NNW 9.2 mph 19.6 mph N/A   Partly Cloudy
2:54 PM 55.0 °F - 33.1 °F 43% 30.08 in 10.0 mi North 9.2 mph - N/A   Mostly Cloudy
3:54 PM 55.0 °F - 33.1 °F 43% 30.08 in 10.0 mi North 9.2 mph - N/A   Partly Cloudy
4:54 PM 54.0 °F - 30.9 °F 41% 30.09 in 10.0 mi North 10.4 mph - N/A   Clear
5:54 PM 51.1 °F - 33.1 °F 50% 30.11 in 10.0 mi North 6.9 mph - N/A   Scattered Clouds
6:54 PM 46.0 °F 42.5 °F 32.0 °F 58% 30.13 in 10.0 mi NNE 6.9 mph - N/A   Clear
7:54 PM 46.4 °F 45.2 °F 32.0 °F 57% 30.14 in 10.0 mi North 3.5 mph - N/A   Partly Cloudy
8:54 PM 46.9 °F - 30.9 °F 54% 30.16 in 10.0 mi NNE 3.5 mph - N/A   Clear
9:54 PM 46.0 °F - 32.0 °F 58% 30.17 in 10.0 mi Calm Calm - N/A   Clear
10:54 PM 44.1 °F 42.5 °F 32.0 °F 63% 30.17 in 10.0 mi ENE 3.5 mph - N/A   Clear
11:54 PM 41.0 °F 39.0 °F 33.1 °F 73% 30.17 in 10.0 mi NNE 3.5 mph - N/A   Clear